Weather in Multanovo

Russia / Astrakhan Oblast     46°19′49″N   48°46′35″E
temp.,
°C
wind,
m/s
gust,
m/s
humid.,
%
clouds,
%
prec.,
mm/h
press.,
hPa
HPBL,
m
26 july, mon
mon2601:00+24nnw45360 0.0 101757
04:00+24ene49360 0.0 1017171
07:00+27e49390 0.0 1018424
10:00+32e77270 0.0 10191928
13:00+33e77210 0.0 10182620
16:00+33ese78215 0.0 10172316
19:00+30ese562576 0.0 1017775
22:00+25e224222 0.0 101820
27 july, tue
tue2701:00+27ene6112926 0.0 1017477
04:00+25ene51031100 0.0 1018563
07:00+25ene5933100 0.0 1018772
10:00+27ene7925100 0.0 10181433
13:00+29ene6819100 0.0 10172063
16:00+29ne5618100 0.0 10162528
19:00+28n61021100 0.0 1015863
22:00+26nne3724100 0.0 1016166
28 july, wed
wed2801:00+24n3727100 0.0 1016118
04:00+23n3529100 0.0 1015100
07:00+24n3629100 0.0 1016208
10:00+28ne5622100 0.0 10161843
13:00+32nne4518100 0.0 10153171
16:00+32n651899 0.0 10143351
19:00+31n45206 0.0 10142856
22:00+23wsw48391 0.0 1015136
29 july, thu
thu2901:00+22w34453 0.0 101548
04:00+21nnw11402 0.0 101411
07:00+25wnw00302 0.0 101553
10:00+32e23200 0.0 10152974
13:00+34ese55185 0.0 10143437
16:00+33sse74235 0.0 10141948
19:00+30s66275 0.0 1014962
22:00+24ssw47525 0.0 1014124
30 july, fri
fri3001:00+22sw36654 0.0 101490
04:00+22wsw33670 0.0 101439
07:00+24w24500 0.0 1014121
10:00+32sw22210 0.0 10141420
13:00+34sse74190 0.0 10142676
16:00+33sse75200 0.0 10131461
19:00+30s56220 0.0 1013693
22:00+23ssw35460 0.0 101354